www.pogodaiklimat.ru

Погода и климат >> Архив погоды >> Мексика >> Пуэрто-Анхель


ПОГОДА в Пуэрто-Анхеле

  • Прогноз погоды в Пуэрто-Анхеле
  • Монитор погоды в Пуэрто-Анхеле

АРХИВ ПОГОДЫ в Пуэрто-Анхеле

Время (UTC), дата Ветер
(напр.,м/с)
 
Видим.   Явления Облачность Т
(С)
Тd
(С)
f
(%)
Тe
(С)
Тes
(С)
Комфортность P
(гПа)
Po
(гПа)
Тmin
(С)
Tmax
(С)
R
(мм)
R24
(мм)
S
(см)
03 13.07 З 2 30 км 6/1 600 м
[Cu med, cong Ac As Cs]
+27.8 +21.0 67 +35 +35 очень
душно
1011.3 1006.4
06 13.07 С 3 30 км 5/1 600 м
[Cu med, cong Ac As Cs]
+26.2 +22.3 79 +34 +34 очень
душно
1012.5 1007.6 +33.0
09 13.07 С 2 30 км 10/1 600 м
[Cu med, cong Ac As Cs]
+26.2 +22.9 82 +35 +35 очень
душно
1011.6 1006.7
12 13.07 С 3 20 км {гроза, морось} 10/4 600 м
[Cb cap As op Ci ing]
+26.0 +24.6 92 +37 +37 очень
душно
1012.1 1007.1 +24.4 +33.0 0.5
15 13.07 СЗ 2 20 км {морось} 10/1 600 м
[Cu med, cong Ac As Cs]
+26.8 +25.7 94 +40 +44 очень
душно
1013.1 1008.2 1
18 13.07 ЮВ 3 30 км 8/1 600 м
[Cu med, cong Ac As Cs]
+30.6 +26.4 78 +47 +57 опасность
перегрева
1013.3 1008.4 +24.4 +30.8
21 13.07 ЮЗ 2 30 км 5/1 600 м
[Cu med, cong Ac As Cs]
+31.4 +25.8 72 +46 +56 опасность
перегрева
1011.8 1006.9
00 14.07 ЮВ 3 20 км 10/5 600 м
[Cb cap Ac As]
+29.2 +25.2 79 +42 +43 опасность
перегрева
1011.9 1007.0 +24.4 +32.4
03 14.07 С 2 20 км 8/1 600 м
[Cb cap Cs]
+26.4 +23.1 82 +35 +35 очень
душно
1013.0 1008.1
06 14.07 СЗ 2 20 км 8/0
[Ac und Cs]
+25.8 +23.0 85 +34 +34 очень
душно
1013.8 1008.9 +32.4
12 14.07 С 2 20 км 5/1 600 м
[Cu med, cong Ac und Cs]
+25.0 +23.3 90 +33 +33 очень
душно
1013.1 1008.1 +24.4 +32.4
15 14.07 ЮЗ 1 20 км 6/0
[Cs]
+29.8 +24.7 74 +42 +52 опасность
перегрева
1013.8 1008.8
18 14.07 ЮЗ 2 20 км 6/1 600 м
[Cu med, cong Cs]
+32.6 +25.7 67 +48 +65 опасность
перегрева
1014.0 1009.1 +24.4 +33.0
12 15.07 С 1 30 км 9/1 600 м
[Cu med, cong Ac As Cs]
+26.0 +21.8 78 +33 +33 очень
душно
1013.4 1008.5 +25.0 +33.6
15 15.07 Ю 2 30 км 1/1 600 м
[Cu med, cong]
+28.6 +23.7 75 +39 +48 очень
душно
1013.1 1008.2
18 15.07 Ю 1 30 км 8/1 600 м
[Cu med, cong Cs]
+31.2 +25.3 71 +45 +65 опасность
перегрева
1013.1 1008.2 +25.0 +32.4
21 15.07 Ю 2 30 км 1/1 600 м
[Cu med, cong]
+32.2 +25.8 69 +47 +60 опасность
перегрева
1012.2 1007.3
00 16.07 Ю 1 30 км 1/1 600 м
[Cu med, cong]
+31.8 +26.0 71 +47 +48 опасность
перегрева
1011.8 1006.9 +25.0 +33.4
03 16.07 С 1 30 км 9/1 600 м
[Cu med, cong Ac trans Cs]
+29.6 +25.9 81 +44 +44 опасность
перегрева
1012.3 1007.5
09 16.07 С 1 30 км 10/3 600 м
[Cu med, cong Ac und]
+26.8 +25.2 91 +39 +39 очень
душно
1011.9 1007.1
12 16.07 СВ 1 30 км 10/5 600 м
[Cb cap Ac und]
+27.0 +24.3 85 +38 +38 очень
душно
1011.6 1006.7 +25.4 +33.4
15 16.07 СЗ 2 30 км 9/4 600 м
[Cb cap Ac As]
+28.0 +25.6 87 +41 +44 опасность
перегрева
1014.0 1009.0
18 16.07 З 2 30 км 6/1 600 м
[Cu med, cong Ac As Cs]
+31.2 +26.2 75 +47 +61 опасность
перегрева
1014.1 1009.1 +25.4 +32.4
21 16.07 Ю 2 30 км 1/1 600 м
[Cu med, cong]
+32.6 +25.4 66 +47 +60 опасность
перегрева
1012.4 1007.5
00 17.07 СВ 2 30 км {дождь} 10/5 600 м
[Cb cap Ac As]
+24.4 +21.6 84 +31 +31 очень
душно
1013.0 1008.1 +25.4 +34.0 3
03 17.07 СВ 4 20 км слаб. морось {гроза, дождь} 10/8 600 м
[Cb cap As op]
+24.0 +22.3 90 +31 +31 очень
душно
1013.9 1009.0 6
06 17.07 С 2 20 км {гроза, дождь} 8/3 600 м
[Cb cap Ac und Cs]
+24.0 +22.6 92 +31 +31 очень
душно
1014.4 1009.5 6
09 17.07 С 2 20 км 9/3 600 м
[Cb cap Ac und Cs]
+25.4 +21.1 77 +32 +32 очень
душно
1013.6 1008.7
12 17.07 С 3 20 км 9/1 600 м
[Cu med, cong Ac und Cs]
+24.4 +21.3 83 +31 +31 очень
душно
1012.6 1007.6 +23.6 +34.0
15 17.07 З 1 30 км 6/1 600 м
[Cu med, cong Ac As]
+28.0 +24.5 81 +39 +46 очень
душно
1013.4 1008.5
18 17.07 ЮЗ 1 30 км 1/1 600 м
[Cu med, cong]
+31.4 +25.8 72 +46 +69 опасность
перегрева
1014.2 1009.3 +23.6 +32.4
21 17.07 Ю 2 30 км 1/1 600 м
[Cu med, cong]
+32.8 +26.2 68 +49 +62 опасность
перегрева
1012.3 1007.4
00 18.07 Ю 2 30 км 5/3 600 м
[Cb cap Cs]
+32.0 +25.9 70 +47 +48 опасность
перегрева
1011.7 1006.9 +23.6 +35.0
03 18.07 С 1 30 км 10/3 600 м
[Cb cap Ac und Cs]
+27.0 +22.0 74 +35 +35 очень
душно
1012.5 1007.6
06 18.07 С 1 30 км 8/1 600 м
[Cu med, cong Cs]
+26.4 +21.9 76 +34 +34 очень
душно
1013.2 1008.4 +24.0 +34.0
09 18.07 СВ 1 30 км 10/4 600 м
[Cb cap Ac und Cs]
+26.4 +22.5 79 +35 +35 очень
душно
1012.0 1007.1
12 18.07 С 1 30 км 5/1 600 м
[Cu med, cong Cs]
+25.4 +22.0 81 +33 +33 очень
душно
1011.7 1006.7 +23.8 +34.0
15 18.07 В 1 30 км 8/1 600 м
[Cu med, cong Cs]
+28.6 +24.0 76 +40 +48 очень
душно
1012.6 1007.7
18 18.07 Ю 1 30 км 8/1 600 м
[Cu med, cong Cs]
+31.2 +25.0 70 +45 +64 опасность
перегрева
1013.5 1008.6 +23.8 +32.4
21 18.07 Ю 1 30 км 8/1 600 м
[Cu med, cong Cs]
+33.4 +26.6 68 +51 +63 опасность
перегрева
1011.2 1006.3
00 19.07 ЮЗ 1 30 км 9/1 600 м
[Cu med, cong Ac trans Cs]
+32.0 +26.2 71 +48 +48 опасность
перегрева
1011.2 1006.3 +23.8 +34.6
03 19.07 С 2 20 км 4/4 600 м
[Cb cap Ci ing]
+28.0 +24.5 81 +39 +39 очень
душно
1012.2 1007.4
12 19.07 С 3 20 км 8/1 600 м
[Cu med, cong Ac und Cs]
+24.8 +22.9 89 +33 +33 очень
душно
1011.8 1006.9 +24.0 +34.6
15 19.07 С 3 30 км 8/1 600 м
[Cu med, cong Ac As Cs]
+28.0 +23.9 78 +39 +43 очень
душно
1012.5 1007.5
21 19.07 ЮЗ 2 30 км 9/1 600 м
[Cu med, cong Ac As Cs]
+32.2 +25.6 68 +47 +54 опасность
перегрева
1011.9 1007.0
00 20.07 СЗ 2 30 км 8/1 600 м
[Cu med, cong Ac As Cs]
+30.8 +25.2 72 +45 +45 опасность
перегрева
1011.9 1007.0 +24.0 +33.4

 

Местоположение метеостанции Пуэрто-Анхель (Мексика): широта 15.68 долгота -96.48 высота над уровнем моря 46 м.

В архиве по умолчанию представлена погода в Пуэрто-Анхеле за последнюю неделю. Архивные данные за месяц целиком и за предыдущие месяцы, начиная с января 2011 года, Вы можете получить, выбрав интересующий диапазон дат из раскрывающегося списка и нажав кнопку "Ввод!".


*Определитесь, кто Вы:
робот инопланетянин человек

Внимание! Время в таблицах - всемирное. Для получения местного времени необходимо прибавить поправку, которая равна -6 ч.

Смотрите также архив погоды в соседних городах и на ближайших метеорологических станциях:

Погода в Салина-Крусе (Мексика) (149 км)
Погода в Оахаке (Мексика) (154 км)
Погода в Уахуапан-де-Леоне (Мексика) (273 км)
Погода в Арриаге (Мексика) (283 км)
Погода в Коацакоалькосе (Мексика) (350 км)
Погода в Оризабе (Мексика) (359 км)
Погода в Кордове (Мексика) (361 км)
Погода в Тустла-Гутьерресе (Мексика) (377 км)
Погода в Чильпансинго (Мексика) (383 км)
Погода в Веракрусе (Мексика) (388 км)

Пояснения к столбцам:

Ветер - указаны скорость ветра в м/с - средняя за 10 мин, порывы в срок и между сроками (в фигурных скобках) и направление, откуда дует ветер: С - северный, СВ - северо-восточный, В - восточный, ЮВ - юго-восточный, Ю - южный, ЮЗ - юго-западный, З - западный, СЗ - северо-западный.
Видимость - горизонтальная дальность видимости в метрах или километрах. При видимости от 1 до 10 км при отсутствии осадков обычно наблюдается дымка, при ухудшении видимости до 1 км и менее - туман. В сухую погоду видимость может ухудшаться дымом, пылью или мглою.
Явления - указаны атмосферные явления, наблюдавшиеся в срок или в последний час перед сроком; фигурными скобками обозначены явления, наблюдавшиеся между сроками (за 1-3 часа до срока); квадратными скобками обозначены град или гололедные отложения с указанием их диаметра в мм.
Облачность - указаны через наклонную черту общая и нижняя облачность в баллах и высота нижней границы облаков в метрах; квадратными скобками обозначены формы облаков: Ci - перистые, Cs - перисто-слоистые, Cc - перисто-кучевые, Ac - высококучевые, As - высокослоистые, Sc - слоисто-кучевые, Ns - слоисто-дождевые, Cu - кучевые, Cb - кучево-дождевые. Подробнее классификацию облаков см. в Атласе облаков (PDF).
T - Температура воздуха - температура, измеренная на высоте 2 м над землей.
Td - Температура точки росы - температура, при понижении до которой содержащийся в воздухе водяной пар достигнет насыщения.
f - Относительная влажность воздуха - влажноcть воздуха, измеренная на высоте 2 м над землей.
Te - Эффективная температура - температура, которую ощущает одетый по сезону человек в тени. Характеристика душности погоды. При расчете учитывается влияние влажности воздуха и скорости ветра на теплоощущения человека.
Tes - Эффективная температура на солнце - температура, которую ощущает человек, с поправкой на солнечный нагрев. Характеристика знойности погоды. Зависит от высоты солнца над горизонтом, облачности и скорости ветра. Ночью, в пасмурную погоду, а также при ветре 12 м/с и более поправка равна нулю.
P - Атмосферное давление - приведенное к уровню моря атмосферное давление.
Po - Атмосферное давление - измеренное на уровне метеостанции атмосферное давление.
Tmin - Минимальная температура - минимум температуры воздуха на высоте 2 м над землей.
Tmax - Максимальная температура - максимум температуры воздуха на высоте 2 м над землей.
R - Количество осадков - Количество выпавших осадков за период времени, мм. При наведении курсора мыши на число - период времени, за который выпало указанное количество осадков.
R24 - Количество осадков - Количество выпавших осадков за 24 часа, мм.
S - Снежный покров - Высота снежного покрова, см. При наведении курсора мыши на число - состояние снежного покрова и степень покрытия местности в баллах.